GFSSGP_prec_precacc12_276.txt.gz
Total_Precipitation_Accumulation
0.00 0.00 0.00 0.00 0.00 0.00 0.11 0.14 0.02 0.01 0.01 0.02 0.04 0.08 0.03 0.00 0.02 0.05 0.00 0.00 0.00 0.00 0.01 0.03 0.05 0.01 0.00 0.00 0.00 0.00 0.00 0.00 0.00 0.00 0.01 0.00 0.02 0.04 0.02 0.01 0.01 0.01 0.04 0.04 0.04 0.07 0.09 0.05 0.01
0.00 0.01 0.00 0.00 0.01 0.04 0.16 0.09 0.04 0.02 0.03 0.04 0.01 0.09 0.12 0.08 0.04 0.01 0.00 0.00 0.00 0.00 0.00 0.01 0.01 0.00 0.00 0.00 0.00 0.00 0.00 0.00 0.01 0.00 0.00 0.00 0.03 0.08 0.03 0.03 0.01 0.02 0.02 0.02 0.02 0.02 0.03 0.00 0.00
0.01 0.01 0.00 0.00 0.01 0.07 0.13 0.11 0.06 0.04 0.08 0.02 0.04 0.06 0.05 0.00 0.03 0.01 0.00 0.00 0.00 0.00 0.00 0.00 0.00 0.00 0.00 0.01 0.00 0.01 0.01 0.01 0.00 0.00 0.00 0.02 0.12 0.21 0.11 0.03 0.01 0.01 0.02 0.01 0.02 0.02 0.01 0.00 0.01
0.00 0.00 0.00 0.00 0.03 0.04 0.04 0.02 0.03 0.11 0.16 0.08 0.01 0.00 0.00 0.00 0.00 0.00 0.00 0.00 0.00 0.00 0.00 0.00 0.00 0.00 0.01 0.00 0.00 0.01 0.01 0.01 0.00 0.00 0.01 0.00 0.08 0.13 0.10 0.02 0.02 0.02 0.03 0.02 0.00 0.02 0.03 0.02 0.02
0.00 0.00 0.00 0.00 0.00 0.01 0.00 0.04 0.13 0.10 0.04 0.02 0.00 0.00 0.00 0.00 0.00 0.00 0.00 0.00 0.00 0.00 0.00 0.00 0.00 0.00 0.01 0.01 0.01 0.00 0.01 0.01 0.00 0.00 0.00 0.01 0.03 0.04 0.00 0.01 0.02 0.01 0.01 0.02 0.01 0.06 0.07 0.01 0.03
0.00 0.01 0.01 0.00 0.00 0.01 0.01 0.01 0.13 0.12 0.01 0.00 0.00 0.00 0.00 0.01 0.00 0.00 0.00 0.00 0.00 0.00 0.00 0.00 0.00 0.01 0.01 0.01 0.00 0.00 0.02 0.02 0.01 0.00 0.00 0.00 0.01 0.01 0.00 0.02 0.00 0.00 0.01 0.01 0.00 0.00 0.03 0.03 0.01
0.00 0.00 0.01 0.01 0.00 0.00 0.01 0.01 0.02 0.00 0.00 0.00 0.00 0.00 0.00 0.01 0.00 0.00 0.00 0.00 0.00 0.00 0.00 0.00 0.00 0.01 0.01 0.00 0.00 0.02 0.02 0.01 0.02 0.00 0.00 0.00 0.00 0.00 0.00 0.01 0.02 0.02 0.06 0.06 0.00 0.00 0.02 0.00 0.00
0.00 0.00 0.01 0.08 0.04 0.00 0.00 0.00 0.00 0.00 0.00 0.00 0.00 0.00 0.00 0.00 0.00 0.00 0.00 0.00 0.00 0.00 0.00 0.00 0.00 0.00 0.00 0.00 0.01 0.01 0.00 0.00 0.00 0.00 0.00 0.00 0.00 0.00 0.00 0.00 0.00 0.01 0.02 0.01 0.02 0.02 0.04 0.03 0.00
0.00 0.00 0.00 0.08 0.05 0.01 0.00 0.00 0.01 0.00 0.00 0.00 0.00 0.00 0.00 0.00 0.00 0.00 0.00 0.00 0.00 0.00 0.00 0.00 0.00 0.00 0.00 0.00 0.01 0.01 0.00 0.00 0.00 0.00 0.00 0.00 0.00 0.01 0.00 0.03 0.00 0.01 0.04 0.06 0.04 0.01 0.02 0.05 0.05
0.00 0.01 0.00 0.00 0.01 0.02 0.00 0.00 0.00 0.00 0.00 0.00 0.00 0.00 0.00 0.00 0.00 0.00 0.00 0.00 0.00 0.00 0.00 0.00 0.00 0.00 0.00 0.00 0.00 0.00 0.00 0.01 0.00 0.00 0.01 0.01 0.02 0.07 0.04 0.00 0.00 0.00 0.00 0.00 0.03 0.05 0.11 0.24 0.15
0.00 0.03 0.00 0.02 0.02 0.02 0.00 0.00 0.00 0.00 0.00 0.00 0.00 0.00 0.00 0.00 0.00 0.00 0.00 0.00 0.00 0.00 0.00 0.00 0.00 0.00 0.00 0.00 0.00 0.00 0.00 0.00 0.00 0.00 0.04 0.09 0.09 0.02 0.00 0.00 0.00 0.02 0.08 0.13 0.02 0.02 0.13 0.35 0.18
0.00 0.01 0.01 0.01 0.00 0.02 0.01 0.00 0.00 0.00 0.00 0.00 0.00 0.00 0.00 0.00 0.00 0.00 0.00 0.00 0.00 0.00 0.00 0.00 0.00 0.00 0.00 0.00 0.00 0.02 0.02 0.00 0.00 0.00 0.03 0.08 0.06 0.01 0.00 0.00 0.00 0.00 0.00 0.00 0.00 0.00 0.02 0.13 0.06
0.00 0.00 0.01 0.00 0.00 0.00 0.01 0.00 0.00 0.00 0.00 0.00 0.00 0.00 0.00 0.00 0.00 0.00 0.00 0.00 0.00 0.00 0.00 0.00 0.00 0.00 0.00 0.00 0.00 0.00 0.02 0.01 0.01 0.02 0.02 0.05 0.04 0.01 0.00 0.00 0.00 0.00 0.00 0.00 0.00 0.00 0.01 0.03 0.02
0.00 0.00 0.00 0.00 0.00 0.00 0.00 0.00 0.00 0.00 0.00 0.00 0.00 0.00 0.00 0.00 0.00 0.00 0.00 0.00 0.00 0.00 0.00 0.00 0.00 0.00 0.00 0.00 0.00 0.00 0.00 0.01 0.02 0.02 0.06 0.12 0.04 0.01 0.00 0.00 0.00 0.00 0.00 0.00 0.00 0.04 0.08 0.04 0.12
0.00 0.00 0.00 0.00 0.00 0.00 0.00 0.00 0.00 0.00 0.00 0.00 0.00 0.00 0.00 0.00 0.00 0.00 0.00 0.00 0.00 0.00 0.00 0.00 0.00 0.00 0.00 0.00 0.00 0.00 0.00 0.00 0.00 0.01 0.05 0.09 0.10 0.05 0.14 0.07 0.04 0.00 0.00 0.00 0.01 0.01 0.02 0.18 0.25
0.00 0.00 0.00 0.00 0.00 0.00 0.00 0.00 0.00 0.00 0.00 0.00 0.00 0.00 0.00 0.00 0.00 0.00 0.00 0.00 0.00 0.00 0.00 0.00 0.00 0.00 0.00 0.00 0.00 0.00 0.00 0.00 0.01 0.01 0.00 0.01 0.22 0.42 0.34 0.16 0.10 0.02 0.00 0.00 0.04 0.07 0.05 0.07 0.16
0.00 0.00 0.00 0.00 0.00 0.00 0.00 0.00 0.00 0.00 0.00 0.00 0.00 0.00 0.00 0.00 0.00 0.00 0.00 0.00 0.00 0.00 0.00 0.00 0.00 0.00 0.00 0.00 0.00 0.00 0.00 0.02 0.04 0.07 0.09 0.09 0.25 0.37 0.27 0.35 0.16 0.11 0.02 0.05 0.03 0.06 0.13 0.14 0.34
0.00 0.00 0.00 0.00 0.00 0.00 0.00 0.00 0.00 0.00 0.00 0.00 0.00 0.00 0.00 0.00 0.00 0.00 0.00 0.00 0.00 0.00 0.00 0.00 0.00 0.00 0.00 0.00 0.00 0.00 0.00 0.01 0.07 0.17 0.14 0.34 0.49 0.39 0.16 0.29 0.22 0.13 0.04 0.08 0.08 0.08 0.28 0.19 0.46
0.00 0.00 0.00 0.00 0.00 0.00 0.00 0.00 0.00 0.00 0.00 0.00 0.00 0.00 0.00 0.00 0.00 0.00 0.00 0.00 0.00 0.00 0.00 0.00 0.00 0.00 0.00 0.00 0.00 0.00 0.00 0.00 0.03 0.27 0.34 0.19 0.15 0.29 0.35 0.17 0.11 0.07 0.07 0.19 0.26 0.24 0.38 0.54 0.51
0.00 0.00 0.00 0.00 0.00 0.00 0.00 0.00 0.00 0.00 0.00 0.00 0.00 0.00 0.00 0.00 0.00 0.00 0.01 0.00 0.00 0.00 0.00 0.00 0.01 0.00 0.00 0.00 0.00 0.00 0.01 0.03 0.18 0.21 0.21 0.26 0.19 0.22 0.10 0.03 0.01 0.04 0.09 0.21 0.30 0.24 0.42 0.50 0.43
0.00 0.00 0.00 0.00 0.00 0.00 0.00 0.00 0.00 0.00 0.00 0.00 0.00 0.00 0.00 0.01 0.00 0.01 0.00 0.00 0.00 0.00 0.00 0.00 0.00 0.01 0.00 0.00 0.01 0.00 0.01 0.01 0.06 0.13 0.14 0.20 0.28 0.12 0.01 0.02 0.04 0.05 0.13 0.18 0.55 0.41 0.23 0.31 0.38
0.00 0.00 0.00 0.00 0.00 0.00 0.00 0.00 0.00 0.00 0.00 0.00 0.00 0.00 0.01 0.03 0.02 0.03 0.01 0.01 0.01 0.00 0.00 0.01 0.02 0.03 0.01 0.02 0.01 0.01 0.02 0.05 0.05 0.05 0.11 0.18 0.14 0.05 0.00 0.00 0.01 0.15 0.36 0.51 0.40 0.37 0.38 0.31 0.25
0.01 0.01 0.00 0.00 0.00 0.00 0.00 0.00 0.00 0.00 0.00 0.00 0.00 0.00 0.01 0.01 0.01 0.02 0.03 0.02 0.03 0.02 0.01 0.03 0.02 0.04 0.08 0.08 0.10 0.04 0.10 0.09 0.16 0.24 0.32 0.30 0.17 0.18 0.16 0.08 0.17 0.31 0.51 0.39 0.32 0.34 0.26 0.13 0.10
0.01 0.00 0.00 0.00 0.00 0.00 0.00 0.00 0.00 0.00 0.00 0.00 0.00 0.00 0.00 0.01 0.00 0.00 0.01 0.03 0.03 0.02 0.01 0.02 0.01 0.04 0.14 0.20 0.15 0.10 0.26 0.63 0.66 0.57 0.49 0.32 0.16 0.27 0.45 0.30 0.28 0.61 0.52 0.23 0.23 0.20 0.24 0.20 0.21
0.00 0.00 0.00 0.00 0.00 0.00 0.00 0.00 0.00 0.00 0.00 0.00 0.00 0.00 0.00 0.00 0.00 0.00 0.01 0.01 0.01 0.01 0.00 0.00 0.02 0.03 0.08 0.27 0.25 0.47 1.27 2.00 1.10 0.72 0.64 0.43 0.19 0.19 0.39 0.19 0.28 0.43 0.36 0.21 0.16 0.23 0.35 0.49 0.40
0.00 0.00 0.00 0.00 0.00 0.00 0.00 0.00 0.00 0.00 0.00 0.00 0.00 0.00 0.00 0.00 0.00 0.00 0.02 0.01 0.01 0.00 0.00 0.00 0.01 0.02 0.03 0.19 0.37 1.46 4.40 3.08 1.35 1.06 0.70 0.08 0.03 0.17 0.30 0.28 0.34 0.22 0.44 0.44 0.39 0.32 0.27 0.23 0.37
0.00 0.00 0.00 0.00 0.00 0.00 0.00 0.00 0.00 0.00 0.00 0.00 0.00 0.00 0.00 0.00 0.00 0.00 0.00 0.00 0.00 0.00 0.00 0.00 0.00 0.00 0.00 0.11 0.89 2.09 2.51 1.57 1.34 1.08 0.62 0.09 0.02 0.12 0.21 0.23 0.16 0.10 0.10 0.15 0.24 0.18 0.14 0.05 0.11
0.00 0.00 0.00 0.00 0.00 0.00 0.00 0.00 0.00 0.00 0.00 0.00 0.00 0.00 0.00 0.00 0.00 0.00 0.00 0.00 0.00 0.00 0.00 0.00 0.00 0.01 0.05 0.30 0.71 0.61 0.46 0.37 0.25 0.31 0.20 0.05 0.08 0.07 0.05 0.03 0.01 0.01 0.04 0.10 0.06 0.02 0.00 0.00 0.01
0.00 0.00 0.00 0.00 0.00 0.00 0.00 0.00 0.00 0.00 0.00 0.00 0.00 0.00 0.00 0.00 0.00 0.00 0.00 0.00 0.00 0.00 0.00 0.00 0.04 0.12 0.18 0.21 0.19 0.09 0.08 0.08 0.09 0.06 0.04 0.02 0.01 0.00 0.00 0.00 0.00 0.00 0.00 0.00 0.00 0.00 0.00 0.01 0.02
0.00 0.00 0.00 0.00 0.00 0.00 0.00 0.00 0.00 0.00 0.00 0.00 0.00 0.00 0.00 0.00 0.00 0.00 0.00 0.00 0.00 0.00 0.00 0.06 0.11 0.11 0.06 0.03 0.01 0.00 0.00 0.00 0.00 0.00 0.00 0.00 0.00 0.00 0.00 0.00 0.00 0.00 0.00 0.00 0.00 0.01 0.02 0.03 0.02

GFSSGP_prec_precacc12_279.txt.gz
Total_Precipitation_Accumulation
0.00 0.00 0.00 0.02 0.28 0.04 0.12 0.14 0.02 0.02 0.00 0.01 0.01 0.08 0.03 0.03 0.05 0.12 0.01 0.01 0.00 0.00 0.00 0.02 0.05 0.01 0.00 0.00 0.00 0.00 0.00 0.00 0.00 0.00 0.02 0.00 0.00 0.02 0.02 0.03 0.04 0.09 0.14 0.08 0.05 0.14 0.11 0.04 0.00
0.00 0.01 0.00 0.01 0.13 0.05 0.21 0.10 0.02 0.01 0.03 0.04 0.01 0.07 0.11 0.08 0.04 0.01 0.00 0.00 0.00 0.00 0.00 0.01 0.01 0.00 0.00 0.00 0.00 0.00 0.00 0.00 0.01 0.00 0.00 0.00 0.02 0.07 0.02 0.02 0.01 0.04 0.09 0.09 0.04 0.06 0.04 0.00 0.00
0.00 0.01 0.00 0.00 0.01 0.12 0.16 0.10 0.02 0.02 0.05 0.02 0.04 0.07 0.05 0.02 0.03 0.01 0.00 0.00 0.00 0.00 0.00 0.00 0.00 0.00 0.00 0.00 0.00 0.01 0.00 0.00 0.00 0.00 0.00 0.02 0.11 0.20 0.14 0.03 0.02 0.05 0.06 0.05 0.09 0.06 0.09 0.03 0.00
0.00 0.00 0.04 0.00 0.03 0.04 0.05 0.02 0.03 0.06 0.14 0.08 0.01 0.00 0.00 0.00 0.01 0.00 0.00 0.00 0.00 0.00 0.00 0.00 0.00 0.00 0.00 0.00 0.00 0.01 0.00 0.00 0.00 0.01 0.01 0.10 0.15 0.23 0.13 0.10 0.09 0.07 0.06 0.07 0.02 0.02 0.07 0.04 0.02
0.00 0.09 0.19 0.00 0.00 0.01 0.00 0.04 0.13 0.10 0.04 0.01 0.00 0.01 0.00 0.00 0.00 0.00 0.00 0.00 0.00 0.00 0.00 0.00 0.00 0.00 0.01 0.00 0.01 0.00 0.00 0.00 0.00 0.01 0.00 0.03 0.07 0.14 0.01 0.03 0.05 0.03 0.06 0.05 0.00 0.01 0.02 0.00 0.01
0.00 0.01 0.01 0.00 0.00 0.01 0.02 0.01 0.14 0.12 0.01 0.00 0.00 0.00 0.00 0.01 0.00 0.00 0.00 0.00 0.00 0.00 0.00 0.00 0.00 0.01 0.01 0.01 0.00 0.00 0.01 0.00 0.00 0.00 0.01 0.01 0.02 0.02 0.02 0.03 0.00 0.00 0.01 0.02 0.02 0.02 0.04 0.02 0.00
0.00 0.00 0.01 0.01 0.00 0.00 0.00 0.00 0.03 0.01 0.00 0.00 0.00 0.00 0.00 0.01 0.00 0.00 0.00 0.00 0.00 0.00 0.00 0.00 0.00 0.01 0.01 0.01 0.00 0.01 0.01 0.00 0.02 0.00 0.00 0.00 0.00 0.00 0.00 0.02 0.02 0.02 0.07 0.06 0.00 0.00 0.01 0.00 0.00
0.00 0.04 0.08 0.05 0.15 0.10 0.00 0.00 0.00 0.00 0.00 0.00 0.00 0.00 0.00 0.00 0.00 0.00 0.00 0.00 0.00 0.00 0.00 0.00 0.00 0.00 0.00 0.00 0.00 0.00 0.01 0.00 0.00 0.00 0.00 0.00 0.00 0.00 0.00 0.01 0.02 0.01 0.02 0.01 0.02 0.03 0.04 0.02 0.00
0.00 0.06 0.00 0.00 0.09 0.06 0.00 0.00 0.00 0.00 0.00 0.00 0.00 0.00 0.00 0.00 0.00 0.00 0.00 0.00 0.00 0.00 0.00 0.00 0.00 0.00 0.00 0.00 0.00 0.01 0.01 0.00 0.00 0.00 0.00 0.00 0.00 0.02 0.00 0.08 0.04 0.01 0.04 0.06 0.04 0.01 0.02 0.05 0.05
0.00 0.00 0.00 0.00 0.00 0.02 0.00 0.00 0.00 0.00 0.00 0.00 0.00 0.00 0.00 0.00 0.00 0.00 0.00 0.00 0.00 0.00 0.00 0.00 0.00 0.00 0.00 0.00 0.00 0.00 0.00 0.01 0.00 0.00 0.03 0.01 0.02 0.08 0.05 0.02 0.00 0.00 0.00 0.00 0.03 0.05 0.09 0.16 0.08
0.00 0.00 0.00 0.00 0.00 0.01 0.00 0.00 0.00 0.00 0.00 0.00 0.00 0.00 0.00 0.00 0.00 0.00 0.00 0.00 0.00 0.00 0.00 0.00 0.00 0.00 0.00 0.00 0.00 0.00 0.00 0.01 0.00 0.00 0.04 0.09 0.09 0.02 0.00 0.00 0.00 0.02 0.08 0.13 0.02 0.01 0.07 0.19 0.11
0.00 0.00 0.00 0.00 0.00 0.01 0.00 0.00 0.00 0.00 0.00 0.00 0.00 0.00 0.00 0.00 0.00 0.00 0.00 0.00 0.00 0.00 0.00 0.00 0.00 0.00 0.00 0.00 0.00 0.02 0.02 0.00 0.00 0.00 0.03 0.08 0.06 0.01 0.00 0.00 0.00 0.00 0.00 0.00 0.00 0.00 0.01 0.03 0.02
0.00 0.00 0.00 0.00 0.00 0.00 0.00 0.00 0.00 0.00 0.00 0.00 0.00 0.00 0.00 0.00 0.00 0.00 0.00 0.00 0.00 0.00 0.00 0.00 0.00 0.00 0.00 0.00 0.00 0.00 0.02 0.01 0.01 0.02 0.02 0.05 0.04 0.01 0.00 0.00 0.00 0.00 0.00 0.01 0.00 0.00 0.01 0.02 0.01
0.00 0.00 0.00 0.00 0.00 0.00 0.00 0.00 0.00 0.00 0.00 0.00 0.00 0.00 0.00 0.00 0.00 0.00 0.00 0.00 0.00 0.00 0.00 0.00 0.00 0.00 0.00 0.00 0.00 0.00 0.00 0.01 0.02 0.02 0.06 0.11 0.04 0.01 0.00 0.02 0.01 0.00 0.00 0.00 0.00 0.04 0.08 0.02 0.02
0.00 0.00 0.00 0.00 0.00 0.00 0.00 0.00 0.00 0.00 0.00 0.00 0.00 0.00 0.00 0.00 0.00 0.00 0.00 0.00 0.00 0.00 0.00 0.00 0.00 0.00 0.00 0.00 0.00 0.00 0.00 0.00 0.00 0.01 0.05 0.09 0.10 0.06 0.27 0.23 0.09 0.00 0.01 0.00 0.01 0.01 0.02 0.12 0.21
0.00 0.00 0.00 0.00 0.00 0.00 0.00 0.00 0.00 0.00 0.00 0.00 0.00 0.00 0.00 0.00 0.00 0.00 0.00 0.00 0.00 0.00 0.00 0.00 0.00 0.00 0.00 0.00 0.00 0.00 0.00 0.00 0.01 0.01 0.00 0.01 0.24 0.52 0.44 0.24 0.21 0.07 0.06 0.01 0.07 0.10 0.08 0.06 0.14
0.00 0.00 0.00 0.00 0.00 0.00 0.00 0.00 0.00 0.00 0.00 0.00 0.00 0.00 0.00 0.00 0.00 0.00 0.00 0.00 0.00 0.00 0.00 0.00 0.00 0.00 0.00 0.00 0.00 0.00 0.00 0.02 0.03 0.07 0.09 0.09 0.24 0.37 0.28 0.40 0.23 0.27 0.14 0.18 0.14 0.19 0.20 0.20 0.22
0.00 0.00 0.01 0.00 0.00 0.00 0.00 0.00 0.00 0.00 0.00 0.00 0.00 0.00 0.00 0.00 0.00 0.00 0.00 0.00 0.00 0.00 0.00 0.00 0.00 0.00 0.00 0.00 0.00 0.00 0.00 0.00 0.02 0.10 0.12 0.34 0.44 0.39 0.17 0.30 0.29 0.21 0.19 0.16 0.17 0.19 0.43 0.30 0.50
0.00 0.00 0.00 0.00 0.00 0.00 0.00 0.00 0.00 0.00 0.00 0.00 0.00 0.00 0.00 0.00 0.00 0.00 0.00 0.00 0.00 0.00 0.00 0.00 0.00 0.00 0.00 0.00 0.00 0.00 0.00 0.00 0.01 0.05 0.26 0.17 0.13 0.33 0.35 0.17 0.12 0.10 0.11 0.23 0.32 0.35 0.39 0.53 0.70
0.00 0.00 0.01 0.00 0.00 0.00 0.00 0.00 0.00 0.00 0.00 0.00 0.00 0.00 0.00 0.00 0.00 0.00 0.00 0.00 0.00 0.00 0.00 0.00 0.00 0.00 0.00 0.00 0.00 0.00 0.00 0.00 0.01 0.04 0.13 0.22 0.19 0.22 0.10 0.03 0.02 0.09 0.15 0.23 0.35 0.37 0.39 0.44 0.58
0.00 0.00 0.00 0.00 0.00 0.00 0.00 0.04 0.00 0.00 0.00 0.00 0.00 0.00 0.00 0.00 0.00 0.00 0.00 0.00 0.00 0.00 0.00 0.00 0.00 0.00 0.00 0.00 0.01 0.00 0.00 0.01 0.03 0.06 0.10 0.20 0.28 0.12 0.01 0.02 0.04 0.08 0.21 0.27 0.61 0.47 0.26 0.28 0.38
0.00 0.00 0.00 0.00 0.00 0.07 0.01 0.02 0.01 0.00 0.00 0.00 0.00 0.00 0.00 0.00 0.00 0.00 0.00 0.00 0.00 0.00 0.00 0.00 0.01 0.00 0.01 0.02 0.01 0.01 0.02 0.05 0.05 0.05 0.11 0.18 0.14 0.10 0.05 0.01 0.02 0.21 0.42 0.49 0.51 0.40 0.29 0.33 0.22
0.00 0.00 0.00 0.00 0.00 0.00 0.02 0.01 0.05 0.00 0.00 0.00 0.00 0.00 0.00 0.00 0.00 0.00 0.00 0.00 0.00 0.00 0.00 0.01 0.01 0.02 0.05 0.07 0.10 0.04 0.10 0.09 0.16 0.24 0.32 0.29 0.20 0.24 0.17 0.02 0.05 0.14 0.34 0.25 0.20 0.18 0.14 0.15 0.17
0.00 0.00 0.00 0.00 0.00 0.01 0.03 0.00 0.02 0.06 0.00 0.00 0.00 0.00 0.00 0.00 0.00 0.00 0.00 0.00 0.00 0.00 0.00 0.00 0.00 0.03 0.11 0.19 0.12 0.10 0.26 0.62 0.61 0.52 0.44 0.32 0.22 0.31 0.30 0.15 0.17 0.16 0.17 0.07 0.10 0.13 0.18 0.29 0.33
0.00 0.00 0.00 0.00 0.00 0.03 0.03 0.00 0.00 0.00 0.00 0.00 0.00 0.00 0.00 0.00 0.00 0.00 0.00 0.00 0.00 0.00 0.00 0.00 0.01 0.03 0.08 0.26 0.24 0.41 1.09 1.80 0.84 0.38 0.41 0.37 0.17 0.13 0.28 0.05 0.09 0.14 0.21 0.18 0.11 0.24 0.41 0.54 0.38
0.00 0.00 0.00 0.00 0.01 0.01 0.00 0.00 0.00 0.00 0.00 0.00 0.00 0.00 0.00 0.00 0.00 0.00 0.00 0.00 0.00 0.00 0.00 0.00 0.01 0.02 0.01 0.18 0.36 0.71 2.09 1.80 0.61 0.43 0.51 0.06 0.00 0.01 0.06 0.05 0.11 0.11 0.34 0.31 0.22 0.25 0.29 0.30 0.42
0.00 0.00 0.00 0.00 0.00 0.00 0.00 0.00 0.00 0.00 0.00 0.00 0.00 0.00 0.00 0.00 0.00 0.00 0.00 0.00 0.00 0.00 0.00 0.00 0.00 0.00 0.00 0.08 0.55 1.13 1.19 0.28 0.21 0.40 0.30 0.04 0.02 0.07 0.11 0.14 0.06 0.03 0.06 0.09 0.11 0.13 0.17 0.08 0.14
0.00 0.00 0.00 0.00 0.00 0.00 0.00 0.00 0.00 0.00 0.00 0.00 0.00 0.00 0.00 0.00 0.00 0.00 0.00 0.00 0.00 0.00 0.00 0.00 0.00 0.00 0.02 0.22 0.52 0.48 0.17 0.04 0.06 0.07 0.07 0.03 0.04 0.03 0.02 0.02 0.01 0.01 0.03 0.06 0.04 0.02 0.01 0.01 0.01
0.00 0.00 0.00 0.00 0.00 0.00 0.00 0.00 0.00 0.00 0.00 0.00 0.00 0.00 0.00 0.00 0.00 0.00 0.00 0.00 0.00 0.00 0.00 0.00 0.01 0.07 0.12 0.15 0.10 0.04 0.01 0.00 0.02 0.03 0.03 0.01 0.00 0.00 0.00 0.00 0.00 0.00 0.00 0.00 0.00 0.00 0.01 0.01 0.02
0.00 0.00 0.00 0.00 0.00 0.00 0.00 0.00 0.00 0.00 0.00 0.00 0.00 0.00 0.00 0.00 0.00 0.00 0.00 0.00 0.00 0.00 0.00 0.00 0.05 0.07 0.04 0.03 0.01 0.00 0.00 0.00 0.00 0.00 0.00 0.00 0.00 0.00 0.00 0.00 0.00 0.00 0.00 0.00 0.01 0.01 0.02 0.02 0.03

GFSSGP_prec_precacc12_285.txt.gz
Total_Precipitation_Accumulation
0.00 0.16 0.36 0.24 0.79 0.38 0.08 0.07 0.03 0.12 0.02 0.02 0.01 0.22 0.02 0.19 0.16 0.16 0.03 0.02 0.00 0.00 0.00 0.01 0.03 0.00 0.00 0.01 0.01 0.00 0.00 0.00 0.00 0.05 0.03 0.00 0.00 0.01 0.06 0.10 0.08 0.10 0.14 0.07 0.05 0.14 0.12 0.04 0.02
0.22 0.46 1.17 1.30 0.40 0.15 0.22 0.07 0.01 0.02 0.01 0.06 0.03 0.59 0.14 0.03 0.00 0.00 0.00 0.00 0.00 0.00 0.00 0.00 0.01 0.00 0.00 0.00 0.00 0.00 0.00 0.00 0.00 0.00 0.00 0.00 0.00 0.00 0.03 0.03 0.04 0.07 0.11 0.09 0.04 0.07 0.04 0.00 0.01
0.25 0.36 1.07 1.23 0.33 0.12 0.23 0.11 0.01 0.00 0.02 0.02 0.10 0.24 0.05 0.03 0.01 0.00 0.00 0.00 0.00 0.00 0.00 0.00 0.00 0.00 0.00 0.00 0.00 0.00 0.00 0.00 0.00 0.00 0.00 0.00 0.01 0.03 0.04 0.02 0.04 0.08 0.07 0.08 0.13 0.10 0.16 0.05 0.00
0.25 0.54 0.75 0.48 0.13 0.04 0.03 0.03 0.06 0.02 0.00 0.00 0.05 0.23 0.00 0.01 0.03 0.00 0.00 0.00 0.00 0.00 0.00 0.00 0.00 0.00 0.00 0.00 0.00 0.00 0.00 0.00 0.00 0.01 0.03 0.20 0.18 0.21 0.05 0.11 0.11 0.08 0.08 0.13 0.12 0.12 0.16 0.05 0.00
1.15 2.15 0.62 0.13 0.04 0.12 0.01 0.00 0.01 0.02 0.00 0.00 0.05 0.16 0.00 0.00 0.01 0.00 0.00 0.00 0.00 0.00 0.00 0.00 0.00 0.00 0.00 0.00 0.00 0.00 0.00 0.00 0.01 0.01 0.00 0.03 0.07 0.14 0.01 0.03 0.05 0.03 0.07 0.08 0.06 0.05 0.10 0.05 0.00
0.86 0.84 0.22 0.03 0.04 0.06 0.01 0.01 0.20 0.03 0.00 0.00 0.00 0.00 0.01 0.01 0.00 0.00 0.00 0.00 0.00 0.00 0.00 0.00 0.00 0.00 0.00 0.01 0.00 0.00 0.00 0.01 0.01 0.00 0.00 0.01 0.02 0.02 0.02 0.02 0.00 0.00 0.01 0.02 0.03 0.05 0.06 0.06 0.00
0.11 0.13 0.14 0.02 0.03 0.02 0.00 0.01 0.10 0.02 0.00 0.00 0.00 0.00 0.01 0.00 0.00 0.00 0.00 0.00 0.01 0.00 0.00 0.00 0.00 0.00 0.00 0.02 0.00 0.01 0.00 0.00 0.02 0.00 0.01 0.00 0.00 0.00 0.00 0.02 0.02 0.02 0.07 0.06 0.00 0.00 0.00 0.00 0.00
0.08 0.45 0.52 0.03 0.18 0.16 0.00 0.00 0.00 0.01 0.00 0.00 0.00 0.00 0.00 0.00 0.00 0.00 0.00 0.00 0.00 0.00 0.00 0.00 0.00 0.00 0.00 0.00 0.00 0.02 0.00 0.00 0.00 0.00 0.00 0.00 0.00 0.00 0.00 0.01 0.02 0.01 0.02 0.01 0.02 0.03 0.01 0.00 0.00
0.05 0.22 0.05 0.03 0.12 0.07 0.00 0.01 0.00 0.00 0.00 0.00 0.00 0.00 0.00 0.00 0.00 0.00 0.00 0.00 0.00 0.00 0.00 0.00 0.00 0.00 0.00 0.00 0.00 0.01 0.01 0.01 0.00 0.00 0.00 0.00 0.00 0.06 0.01 0.09 0.05 0.01 0.04 0.06 0.03 0.01 0.01 0.01 0.01
0.08 0.06 0.00 0.00 0.01 0.00 0.01 0.00 0.00 0.01 0.00 0.01 0.00 0.00 0.00 0.00 0.00 0.00 0.00 0.00 0.00 0.00 0.00 0.00 0.00 0.00 0.00 0.00 0.00 0.00 0.00 0.01 0.01 0.00 0.06 0.05 0.01 0.08 0.03 0.04 0.00 0.00 0.00 0.00 0.02 0.03 0.06 0.04 0.02
0.01 0.00 0.00 0.00 0.00 0.00 0.00 0.01 0.00 0.07 0.01 0.03 0.01 0.00 0.00 0.00 0.00 0.00 0.00 0.00 0.00 0.00 0.00 0.01 0.01 0.00 0.00 0.01 0.00 0.01 0.08 0.10 0.03 0.02 0.01 0.00 0.02 0.00 0.00 0.01 0.02 0.00 0.00 0.01 0.02 0.03 0.08 0.15 0.18
0.04 0.04 0.00 0.00 0.00 0.00 0.00 0.00 0.01 0.02 0.00 0.00 0.00 0.00 0.00 0.00 0.00 0.00 0.00 0.00 0.00 0.00 0.00 0.00 0.00 0.01 0.01 0.00 0.00 0.06 0.18 0.62 0.35 0.09 0.04 0.02 0.01 0.01 0.00 0.00 0.00 0.00 0.00 0.00 0.00 0.00 0.07 0.22 0.30
0.05 0.00 0.00 0.00 0.00 0.00 0.00 0.00 0.00 0.00 0.00 0.00 0.00 0.00 0.00 0.00 0.00 0.00 0.00 0.00 0.00 0.00 0.00 0.00 0.00 0.00 0.00 0.00 0.00 0.00 0.01 0.03 0.04 0.02 0.01 0.00 0.01 0.00 0.00 0.00 0.00 0.00 0.00 0.00 0.00 0.00 0.01 0.03 0.04
0.02 0.00 0.01 0.00 0.00 0.00 0.00 0.00 0.00 0.00 0.00 0.00 0.00 0.00 0.00 0.00 0.00 0.00 0.00 0.00 0.00 0.00 0.00 0.00 0.00 0.00 0.00 0.00 0.01 0.00 0.00 0.00 0.00 0.00 0.00 0.00 0.02 0.00 0.01 0.04 0.03 0.01 0.00 0.00 0.00 0.01 0.07 0.02 0.00
0.00 0.02 0.06 0.00 0.00 0.01 0.01 0.01 0.00 0.00 0.00 0.00 0.00 0.00 0.00 0.00 0.00 0.00 0.00 0.00 0.00 0.00 0.00 0.00 0.00 0.00 0.00 0.00 0.00 0.00 0.00 0.00 0.00 0.01 0.00 0.00 0.00 0.04 0.29 0.30 0.13 0.03 0.11 0.09 0.06 0.02 0.02 0.07 0.05
0.03 0.02 0.04 0.00 0.00 0.00 0.02 0.09 0.00 0.00 0.00 0.00 0.00 0.00 0.00 0.00 0.00 0.00 0.00 0.00 0.00 0.00 0.00 0.00 0.00 0.00 0.00 0.00 0.00 0.00 0.01 0.00 0.00 0.00 0.00 0.02 0.19 0.43 0.43 0.23 0.22 0.11 0.25 0.16 0.15 0.13 0.11 0.08 0.12
0.02 0.01 0.02 0.03 0.00 0.00 0.01 0.34 0.01 0.00 0.00 0.00 0.00 0.00 0.00 0.00 0.00 0.00 0.00 0.00 0.00 0.00 0.00 0.00 0.00 0.00 0.00 0.00 0.00 0.00 0.00 0.00 0.00 0.00 0.00 0.02 0.12 0.31 0.31 0.31 0.21 0.36 0.24 0.33 0.22 0.29 0.28 0.29 0.29
0.00 0.01 0.03 0.03 0.02 0.00 0.01 0.19 0.09 0.01 0.02 0.00 0.00 0.00 0.00 0.00 0.00 0.00 0.00 0.00 0.00 0.00 0.00 0.00 0.00 0.00 0.00 0.00 0.00 0.00 0.00 0.00 0.00 0.01 0.01 0.04 0.15 0.24 0.09 0.23 0.25 0.27 0.23 0.20 0.21 0.20 0.48 0.29 0.46
0.00 0.01 0.02 0.01 0.00 0.00 0.03 0.06 0.15 0.06 0.05 0.04 0.01 0.00 0.00 0.00 0.00 0.00 0.00 0.00 0.00 0.00 0.00 0.00 0.00 0.00 0.00 0.00 0.00 0.00 0.01 0.01 0.00 0.00 0.01 0.04 0.06 0.21 0.27 0.06 0.03 0.06 0.08 0.15 0.30 0.34 0.32 0.58 0.58
0.00 0.00 0.03 0.04 0.00 0.01 0.01 0.09 0.23 0.26 0.11 0.06 0.04 0.00 0.00 0.00 0.00 0.00 0.00 0.00 0.00 0.00 0.00 0.00 0.00 0.00 0.00 0.00 0.00 0.00 0.02 0.02 0.02 0.00 0.01 0.04 0.06 0.24 0.33 0.19 0.21 0.31 0.45 0.30 0.42 0.50 0.48 0.65 0.62
0.00 0.00 0.02 0.02 0.01 0.01 0.02 0.08 0.07 0.14 0.13 0.03 0.03 0.02 0.00 0.00 0.00 0.00 0.00 0.00 0.00 0.00 0.00 0.00 0.00 0.00 0.00 0.00 0.00 0.00 0.00 0.01 0.02 0.02 0.00 0.01 0.03 0.16 0.32 0.41 0.57 0.58 0.47 0.61 0.56 0.37 0.26 0.43 0.46
0.00 0.00 0.00 0.00 0.00 0.11 0.05 0.22 0.36 0.10 0.05 0.04 0.02 0.04 0.02 0.01 0.00 0.00 0.00 0.00 0.00 0.00 0.00 0.00 0.00 0.00 0.00 0.00 0.00 0.00 0.03 0.05 0.01 0.03 0.11 0.05 0.03 0.17 0.57 0.78 0.88 0.31 0.40 0.58 0.57 0.38 0.30 0.39 0.50
0.00 0.00 0.00 0.00 0.00 0.01 0.14 0.12 0.15 0.10 0.14 0.02 0.00 0.01 0.02 0.01 0.01 0.00 0.00 0.00 0.00 0.00 0.00 0.00 0.00 0.00 0.00 0.00 0.00 0.00 0.04 0.02 0.02 0.07 0.07 0.03 0.06 0.22 0.44 0.33 0.22 0.25 0.24 0.24 0.37 0.41 0.49 0.50 0.57
0.00 0.00 0.00 0.00 0.00 0.11 0.16 0.02 0.05 0.25 0.06 0.04 0.02 0.02 0.01 0.00 0.01 0.01 0.02 0.01 0.00 0.00 0.00 0.00 0.00 0.00 0.00 0.00 0.01 0.01 0.05 0.06 0.13 0.05 0.04 0.00 0.09 0.21 0.15 0.04 0.03 0.08 0.17 0.21 0.32 0.32 0.41 0.54 0.52
0.00 0.00 0.00 0.00 0.11 0.32 0.11 0.00 0.02 0.01 0.01 0.04 0.05 0.09 0.05 0.01 0.00 0.01 0.01 0.02 0.03 0.01 0.00 0.00 0.00 0.00 0.00 0.00 0.00 0.00 0.00 0.08 0.11 0.05 0.01 0.00 0.01 0.02 0.05 0.01 0.05 0.12 0.17 0.15 0.15 0.22 0.38 0.48 0.37
0.00 0.00 0.00 0.00 0.03 0.06 0.01 0.04 0.05 0.00 0.00 0.05 0.03 0.02 0.02 0.01 0.00 0.01 0.01 0.00 0.01 0.01 0.00 0.00 0.00 0.00 0.00 0.00 0.00 0.00 0.00 0.03 0.01 0.00 0.00 0.00 0.00 0.01 0.08 0.08 0.10 0.16 0.31 0.27 0.19 0.19 0.21 0.25 0.32
0.00 0.00 0.00 0.00 0.00 0.00 0.05 0.05 0.02 0.02 0.03 0.05 0.00 0.00 0.00 0.00 0.00 0.00 0.00 0.00 0.00 0.00 0.00 0.00 0.00 0.00 0.00 0.00 0.00 0.00 0.00 0.00 0.00 0.00 0.00 0.00 0.01 0.03 0.05 0.02 0.03 0.02 0.03 0.04 0.07 0.07 0.06 0.06 0.11
0.00 0.00 0.00 0.00 0.00 0.00 0.02 0.04 0.05 0.02 0.01 0.08 0.02 0.00 0.00 0.00 0.00 0.00 0.00 0.00 0.00 0.00 0.00 0.00 0.00 0.00 0.00 0.00 0.00 0.00 0.00 0.00 0.00 0.00 0.00 0.01 0.04 0.02 0.00 0.00 0.00 0.01 0.00 0.00 0.01 0.01 0.01 0.01 0.02
0.00 0.00 0.00 0.00 0.00 0.00 0.00 0.01 0.01 0.02 0.00 0.01 0.00 0.00 0.00 0.00 0.00 0.00 0.00 0.00 0.00 0.00 0.00 0.00 0.00 0.00 0.00 0.00 0.00 0.00 0.00 0.00 0.00 0.00 0.01 0.01 0.00 0.00 0.00 0.00 0.00 0.00 0.00 0.00 0.00 0.00 0.01 0.01 0.02
0.00 0.00 0.00 0.00 0.00 0.00 0.00 0.00 0.00 0.00 0.00 0.02 0.01 0.00 0.00 0.00 0.00 0.00 0.00 0.00 0.00 0.00 0.00 0.00 0.00 0.00 0.00 0.00 0.00 0.00 0.00 0.00 0.00 0.00 0.01 0.01 0.00 0.00 0.00 0.00 0.00 0.00 0.00 0.00 0.01 0.01 0.01 0.01 0.02

GFSSGP_prec_precacc12_291.txt.gz
Total_Precipitation_Accumulation
0.01 0.19 0.37 0.27 0.56 0.37 0.08 0.02 0.06 0.21 0.04 0.07 0.02 0.22 0.02 0.17 0.11 0.04 0.02 0.01 0.00 0.00 0.00 0.02 0.03 0.00 0.00 0.01 0.01 0.00 0.00 0.00 0.00 0.05 0.02 0.00 0.00 0.01 0.06 0.07 0.04 0.01 0.01 0.00 0.00 0.00 0.01 0.03 0.07
0.24 0.50 1.18 1.32 0.29 0.12 0.15 0.04 0.04 0.06 0.03 0.08 0.03 0.58 0.13 0.00 0.00 0.00 0.00 0.00 0.00 0.00 0.00 0.00 0.01 0.00 0.00 0.00 0.00 0.00 0.00 0.00 0.00 0.00 0.00 0.00 0.00 0.00 0.03 0.02 0.04 0.03 0.02 0.00 0.00 0.00 0.00 0.01 0.07
0.26 0.36 1.21 1.45 0.37 0.05 0.19 0.10 0.07 0.04 0.03 0.07 0.14 0.23 0.05 0.01 0.01 0.00 0.00 0.00 0.00 0.00 0.00 0.00 0.00 0.00 0.00 0.01 0.00 0.01 0.01 0.01 0.00 0.00 0.00 0.00 0.01 0.04 0.00 0.00 0.02 0.04 0.01 0.03 0.04 0.05 0.07 0.02 0.03
0.26 0.57 0.78 0.57 0.18 0.04 0.01 0.03 0.11 0.04 0.00 0.01 0.06 0.23 0.00 0.01 0.02 0.00 0.00 0.00 0.00 0.00 0.00 0.00 0.00 0.01 0.01 0.01 0.03 0.04 0.03 0.00 0.00 0.00 0.02 0.10 0.05 0.01 0.00 0.02 0.03 0.02 0.02 0.07 0.10 0.09 0.09 0.03 0.00
1.16 2.09 0.47 0.14 0.07 0.11 0.01 0.01 0.01 0.03 0.00 0.00 0.04 0.15 0.00 0.00 0.01 0.00 0.00 0.00 0.00 0.00 0.00 0.00 0.01 0.00 0.00 0.00 0.01 0.01 0.00 0.01 0.01 0.03 0.01 0.01 0.01 0.01 0.01 0.00 0.00 0.01 0.01 0.04 0.05 0.05 0.08 0.05 0.00
0.86 0.83 0.20 0.04 0.06 0.06 0.01 0.01 0.18 0.02 0.00 0.00 0.00 0.00 0.00 0.00 0.00 0.00 0.00 0.00 0.00 0.00 0.00 0.00 0.00 0.00 0.00 0.01 0.01 0.00 0.01 0.02 0.03 0.00 0.00 0.04 0.01 0.00 0.00 0.01 0.00 0.00 0.00 0.00 0.01 0.03 0.03 0.04 0.00
0.12 0.13 0.14 0.01 0.04 0.02 0.00 0.01 0.08 0.01 0.00 0.00 0.00 0.00 0.01 0.00 0.00 0.00 0.00 0.00 0.01 0.00 0.00 0.00 0.00 0.00 0.01 0.01 0.00 0.00 0.00 0.01 0.01 0.01 0.01 0.01 0.00 0.00 0.01 0.01 0.00 0.00 0.00 0.00 0.00 0.00 0.02 0.02 0.00
0.09 0.42 0.46 0.03 0.08 0.06 0.00 0.00 0.00 0.01 0.00 0.01 0.00 0.00 0.00 0.00 0.00 0.00 0.00 0.01 0.00 0.00 0.00 0.00 0.00 0.00 0.00 0.00 0.00 0.02 0.00 0.01 0.00 0.01 0.00 0.00 0.00 0.00 0.00 0.00 0.00 0.00 0.00 0.00 0.00 0.00 0.00 0.01 0.03
0.08 0.18 0.06 0.03 0.05 0.02 0.00 0.02 0.00 0.01 0.00 0.00 0.00 0.00 0.00 0.00 0.00 0.00 0.02 0.03 0.00 0.00 0.00 0.00 0.00 0.00 0.00 0.00 0.00 0.01 0.00 0.01 0.00 0.00 0.00 0.00 0.00 0.06 0.06 0.03 0.09 0.06 0.00 0.00 0.00 0.00 0.00 0.00 0.00
0.09 0.06 0.01 0.00 0.01 0.01 0.01 0.00 0.00 0.02 0.01 0.00 0.00 0.00 0.00 0.00 0.00 0.00 0.00 0.00 0.00 0.00 0.00 0.00 0.00 0.00 0.00 0.00 0.00 0.00 0.00 0.00 0.00 0.00 0.04 0.04 0.02 0.08 0.07 0.13 0.16 0.08 0.06 0.07 0.11 0.09 0.03 0.02 0.03
0.01 0.00 0.01 0.00 0.00 0.00 0.00 0.01 0.01 0.07 0.01 0.03 0.01 0.00 0.00 0.00 0.00 0.00 0.00 0.00 0.00 0.00 0.00 0.01 0.02 0.00 0.00 0.01 0.00 0.00 0.08 0.10 0.02 0.02 0.01 0.00 0.00 0.00 0.01 0.14 0.19 0.16 0.13 0.14 0.15 0.16 0.14 0.21 0.22
0.04 0.04 0.01 0.00 0.00 0.01 0.00 0.00 0.01 0.01 0.00 0.00 0.00 0.00 0.00 0.00 0.00 0.00 0.00 0.00 0.00 0.00 0.00 0.00 0.01 0.01 0.01 0.00 0.00 0.06 0.17 0.62 0.35 0.09 0.05 0.03 0.00 0.00 0.00 0.05 0.02 0.00 0.01 0.01 0.01 0.00 0.07 0.23 0.33
0.04 0.01 0.01 0.01 0.00 0.00 0.01 0.00 0.00 0.00 0.00 0.00 0.00 0.00 0.00 0.00 0.00 0.00 0.00 0.00 0.00 0.00 0.00 0.00 0.01 0.00 0.00 0.00 0.00 0.01 0.01 0.04 0.05 0.02 0.01 0.01 0.01 0.03 0.00 0.05 0.08 0.03 0.02 0.03 0.04 0.01 0.00 0.02 0.08
0.01 0.00 0.01 0.01 0.00 0.01 0.02 0.01 0.00 0.00 0.00 0.00 0.00 0.00 0.00 0.00 0.00 0.00 0.00 0.00 0.00 0.00 0.00 0.00 0.00 0.00 0.00 0.00 0.00 0.00 0.00 0.00 0.01 0.00 0.00 0.00 0.01 0.04 0.02 0.06 0.12 0.09 0.08 0.03 0.12 0.11 0.04 0.01 0.01
0.00 0.02 0.06 0.00 0.01 0.03 0.06 0.04 0.03 0.01 0.00 0.00 0.00 0.00 0.00 0.00 0.00 0.00 0.00 0.00 0.00 0.00 0.00 0.00 0.00 0.00 0.00 0.00 0.00 0.00 0.00 0.00 0.00 0.01 0.00 0.04 0.04 0.11 0.14 0.09 0.04 0.06 0.18 0.12 0.11 0.18 0.15 0.11 0.06
0.03 0.02 0.05 0.03 0.01 0.02 0.12 0.11 0.06 0.03 0.01 0.00 0.00 0.00 0.00 0.00 0.00 0.00 0.00 0.00 0.00 0.00 0.00 0.00 0.00 0.00 0.00 0.00 0.00 0.00 0.01 0.00 0.00 0.00 0.01 0.10 0.16 0.23 0.18 0.08 0.06 0.11 0.24 0.16 0.10 0.11 0.09 0.13 0.11
0.02 0.01 0.04 0.07 0.01 0.02 0.13 0.41 0.06 0.01 0.01 0.00 0.00 0.00 0.00 0.00 0.00 0.00 0.00 0.00 0.00 0.00 0.00 0.00 0.00 0.00 0.00 0.00 0.00 0.00 0.00 0.00 0.01 0.03 0.06 0.12 0.15 0.33 0.52 0.27 0.10 0.15 0.13 0.16 0.12 0.23 0.17 0.15 0.15
0.00 0.01 0.05 0.07 0.04 0.04 0.10 0.28 0.13 0.03 0.03 0.00 0.00 0.00 0.00 0.00 0.00 0.00 0.00 0.00 0.00 0.00 0.00 0.00 0.00 0.00 0.00 0.00 0.00 0.00 0.00 0.00 0.00 0.06 0.11 0.19 0.26 0.39 0.63 0.65 0.36 0.22 0.08 0.07 0.06 0.05 0.17 0.10 0.22
0.00 0.01 0.02 0.02 0.04 0.11 0.10 0.15 0.23 0.19 0.12 0.06 0.01 0.00 0.00 0.00 0.00 0.00 0.00 0.00 0.00 0.00 0.00 0.00 0.00 0.00 0.00 0.00 0.00 0.00 0.03 0.01 0.00 0.03 0.08 0.20 0.22 0.39 0.62 0.45 0.40 0.35 0.28 0.26 0.18 0.13 0.26 0.44 0.24
0.00 0.00 0.02 0.04 0.03 0.03 0.08 0.15 0.26 0.38 0.16 0.09 0.06 0.01 0.00 0.00 0.00 0.00 0.00 0.00 0.00 0.00 0.00 0.00 0.00 0.00 0.00 0.00 0.00 0.00 0.02 0.02 0.03 0.06 0.04 0.09 0.21 0.47 0.59 0.56 0.58 0.55 0.61 0.50 0.42 0.34 0.52 0.69 0.24
0.00 0.00 0.02 0.02 0.01 0.02 0.06 0.08 0.08 0.14 0.13 0.06 0.07 0.05 0.04 0.01 0.02 0.00 0.00 0.00 0.00 0.00 0.00 0.00 0.00 0.00 0.00 0.00 0.00 0.00 0.03 0.02 0.09 0.13 0.12 0.04 0.11 0.31 0.54 0.61 0.68 0.64 0.32 0.45 0.32 0.26 0.29 0.41 0.34
0.00 0.00 0.00 0.00 0.00 0.04 0.04 0.21 0.36 0.10 0.06 0.07 0.06 0.09 0.07 0.03 0.03 0.02 0.01 0.00 0.00 0.00 0.00 0.00 0.00 0.00 0.00 0.00 0.00 0.00 0.07 0.10 0.09 0.14 0.17 0.12 0.07 0.13 0.53 0.79 0.88 0.21 0.24 0.40 0.45 0.40 0.42 0.28 0.53
0.00 0.00 0.00 0.00 0.00 0.01 0.12 0.11 0.10 0.10 0.14 0.03 0.03 0.04 0.06 0.05 0.03 0.02 0.02 0.02 0.01 0.00 0.00 0.00 0.00 0.00 0.00 0.00 0.00 0.00 0.06 0.10 0.14 0.28 0.17 0.11 0.03 0.14 0.37 0.31 0.21 0.23 0.21 0.22 0.45 0.45 0.60 0.49 0.48
0.00 0.00 0.00 0.00 0.00 0.10 0.13 0.02 0.02 0.19 0.06 0.04 0.04 0.06 0.07 0.08 0.05 0.04 0.04 0.04 0.02 0.01 0.00 0.00 0.00 0.00 0.00 0.00 0.00 0.00 0.04 0.12 0.31 0.16 0.08 0.01 0.01 0.11 0.11 0.02 0.02 0.07 0.16 0.22 0.28 0.27 0.35 0.36 0.30
0.00 0.00 0.00 0.00 0.10 0.30 0.08 0.00 0.02 0.01 0.01 0.04 0.05 0.13 0.09 0.09 0.07 0.05 0.05 0.03 0.05 0.01 0.00 0.00 0.00 0.00 0.00 0.00 0.00 0.00 0.00 0.17 0.28 0.15 0.01 0.00 0.00 0.01 0.04 0.01 0.03 0.06 0.09 0.10 0.09 0.11 0.19 0.16 0.13
0.00 0.00 0.00 0.00 0.02 0.05 0.01 0.04 0.05 0.00 0.00 0.05 0.03 0.02 0.05 0.17 0.05 0.02 0.03 0.02 0.05 0.03 0.00 0.00 0.00 0.00 0.00 0.00 0.00 0.00 0.01 0.13 0.17 0.06 0.00 0.00 0.00 0.01 0.06 0.07 0.06 0.08 0.10 0.11 0.12 0.09 0.07 0.06 0.08
0.00 0.00 0.00 0.00 0.00 0.00 0.04 0.04 0.02 0.02 0.03 0.05 0.00 0.00 0.01 0.02 0.01 0.00 0.01 0.02 0.03 0.03 0.02 0.02 0.01 0.00 0.00 0.00 0.00 0.00 0.07 0.16 0.07 0.01 0.00 0.00 0.01 0.03 0.04 0.01 0.02 0.01 0.01 0.01 0.02 0.01 0.01 0.00 0.01
0.00 0.00 0.00 0.00 0.00 0.00 0.01 0.04 0.05 0.02 0.01 0.08 0.02 0.00 0.00 0.00 0.00 0.00 0.00 0.01 0.02 0.03 0.04 0.02 0.01 0.00 0.00 0.00 0.00 0.00 0.06 0.09 0.01 0.00 0.00 0.01 0.03 0.02 0.00 0.00 0.00 0.00 0.00 0.00 0.00 0.00 0.00 0.00 0.00
0.00 0.00 0.00 0.00 0.00 0.00 0.00 0.01 0.01 0.02 0.00 0.01 0.00 0.00 0.00 0.00 0.00 0.00 0.00 0.00 0.01 0.02 0.02 0.01 0.00 0.00 0.00 0.00 0.00 0.00 0.06 0.02 0.00 0.00 0.00 0.00 0.00 0.00 0.00 0.00 0.00 0.00 0.00 0.00 0.00 0.00 0.00 0.00 0.00
0.00 0.00 0.00 0.00 0.00 0.00 0.00 0.00 0.00 0.00 0.00 0.02 0.03 0.00 0.00 0.00 0.00 0.00 0.00 0.00 0.00 0.00 0.00 0.00 0.00 0.00 0.00 0.00 0.00 0.00 0.01 0.00 0.00 0.00 0.00 0.00 0.00 0.00 0.00 0.00 0.00 0.00 0.00 0.00 0.00 0.00 0.00 0.00 0.00